461  
SXUS52 KJAX 191014  
OSOJAX  
OTHER SURFACE OBSERVATIONS  
NATIONAL WEATHER SERVICE JACKSONVILLE FL  
600 AM EDT FRI JUL 19 2019  
 
FLZ020>025-030>033-035>038-040-191100-   
..FLORIDA
 
 
 
CITY SKY/WX TMP DP RH WIND PRES REMARKS  
CECIL FIELD FAIR 75 73 94 CALM 30.06R  
HERLONG FIELD NOT AVBL  
FERNANDINA BCH NOT AVBL  
LAKE CITY FAIR 75 73 94 CALM 30.06S  
JUNIPER SPGS NOT AVBL  
BUNNELL NOT AVBL  
KEYSTONE HGTS PTSUNNY 75 75 100 CALM 30.06S  

 
 
GAZ132>136-149>154-162>166-191100-   
..GEORGIA
 
 
 
CITY SKY/WX TMP DP RH WIND PRES REMARKS  
JESUP FAIR 75 72 88 CALM 30.05R  
HOMERVILLE FAIR 73 72 94 CALM 30.05S  
SWAINSBORO FAIR 73 72 94 CALM 30.06R  
CORDELE FAIR 73 71 92 CALM 30.06R  
EASTMAN FAIR 71 70 98 CALM 30.07R FOG  

 
 
PLEASE NOTE: THESE OBSERVATIONS ARE NOT QUALITY CONTROLLED AND MAY  
NOT BE AVAILABLE AT ALL TIMES.  

 
 
 
CLICK HERE TO GO TO PREVIOUS BULLETINS.

The Nexlab FL Page
The Nexlab GA Page Main Text Page